Regional Weather Roundup
Issued by NWS Midland/Odessa, TX

Skip options and go directly to product.
Home | Oldest Version | Previous Version | Current Version | All | Graphics & Text | Save Text | Print | Product List | Glossary On

Skip product version selection by date and time.   
665
ASUS44 KMAF 242210
RWRMAF
MIDLAND AREA WEATHER ROUNDUP
NATIONAL WEATHER SERVICE MIDLAND TX
500 PM CDT THU APR 24 2014

...IN SOUTHWEST TEXAS AND SOUTHEAST NEW MEXICO...

CITY           SKY/WX    TMP DP  RH WIND       PRES   REMARKS
ALPINE         SUNNY     80  18   9 NE8       30.08F
ANDREWS        FAIR      79  28  15 N12G17    29.98F
ARTESIA        MOSUNNY   75  25  15 E7        29.98F
BIG SPRING     SUNNY     82  25  12 NW14      29.97F
CARLSBAD       MOSUNNY   78  20  11 CALM      29.96F
DRYDEN           N/A     95  15   5 N17       29.88F
FORT STOCKTON  SUNNY     81  15   8 CALM      29.97F
GUAD PASS      SUNNY     78  14   9 SW14      30.08F
HOBBS          NOT AVBL
MARFA          SUNNY     79  19  11 SE5       30.06F
MIDLAND AIRPK  SUNNY     81  26  13 CALM      29.97F
MIDLAND INTL   SUNNY     80  29  15 N10       29.96F
ODESSA         SUNNY     79  25  13 MISG      29.97F
PECOS          SUNNY     82  28  14 CALM      29.95F
PRESIDIO       FAIR      89  18   7 SW5       29.91F
SEMINOLE       SUNNY     76  28  16 W7        30.00F
SNYDER         SUNNY     79  29  16 NW12G17   29.95S
WINK           SUNNY     84  23  10 NE10      29.95F
$$
...OTHER STATIONS IN TEXAS...

CITY           SKY/WX    TMP DP  RH WIND       PRES   REMARKS
ABILENE        SUNNY     81  32  17 N15G23    29.91S
AMARILLO       SUNNY     73  16  11 NW8G18    29.97F
AUSTIN         MOSUNNY   86  65  49 E7        29.80F
BROWNSVILLE    PTSUNNY   84  71  65 SE15      29.77S
CORPUS CHRISTI CLOUDY    83  69  62 SE14      29.80F
DALLAS FTW     MOSUNNY   82  45  27 NW18G25   29.81S
DEL RIO        SUNNY     97  18   6 N10G20    29.80F
EL PASO        MOSUNNY   79  10   7 CALM      29.99F
HOUSTON INT    CLOUDY    82  64  54 S7        29.83S
LUBBOCK        MOSUNNY   76  21  12 NW13G22   29.97F
SAN ANGELO     SUNNY     86  27  11 N16G24    29.90F
SAN ANTONIO    MOSUNNY   89  63  41 SE13      29.80F
WACO           SUNNY     87  44  22 NW14G20   29.82S
WICHITA FALLS  NOT AVBL
$$
...OTHER LOCATIONS IN NEW MEXICO...

CITY           SKY/WX    TMP DP  RH WIND       PRES   REMARKS
ALAMAGORDO     MOSUNNY   75   3   6 W7        30.01F
ALBUQUERQUE    MOSUNNY   67   9  10 SE3       30.05F
CANNON AFB     PTSUNNY   69  26  19 SW10      30.01F
CLOVIS         PTSUNNY   72  25  17 NW5       30.03F
HOLLOMAN AFB   MOSUNNY   76   5   6 SW6       29.99F
ROSWELL        MOSUNNY   77  24  14 E9        29.98F
RUIDOSO        MOSUNNY   66   0   7 SW5       30.13F
SANTA FE       PTSUNNY   67  -7   5 SW23G33   30.03F
TRUTH OR CONSE SUNNY     74   8   8 SE8       30.00F
TUCUMCARI      PTSUNNY   74  22  14 SW9       29.95F
$$

USA.gov is the U.S. government's official web portal to all federal, state and local government web resources and services.